Weather History for Sheridan, WY

Change the Weather History Date:

Wednesday, October 16, 2013

  Actual Average Record
Temperature  
Mean Temperature 38 °F 46 °F  
Max Temperature 55 °F 60 °F 87 °F (1991)
Min Temperature 20 °F 31 °F 14 °F (1992)
Degree Days  
Heating Degree Days 27 20  
Month to date heating degree days 373 269  
Since 1 July heating degree days 528 572  
Cooling Degree Days 0 0  
Month to date cooling degree days 0 0  
Year to date cooling degree days 592 418  
Moisture  
Dew Point 24 °F    
Average Humidity 54    
Maximum Humidity 84    
Minimum Humidity 24    
Precipitation  
Precipitation 0.01 in 0.05 in 0.49 in (1979)
Month to date precipitation 2.11 0.86  
Year to date precipitation 16.36 12.34  
Sea Level Pressure  
Sea Level Pressure 30.12 in    
Wind  
Wind Speed 9 mph (NW)    
Max Wind Speed 30 mph    
Max Gust Speed 36 mph    
Visibility 10 miles    
Events Rain    
T = Trace of Precipitation, MM = Missing Value Source: NWS Daily Summary

Daily Weather History Graph

Daily Weather History Graph

Search for Another Location

Airport:

Trip Planner

Search our weather history database for the weather conditions in past years. The results will help you decide how hot, cold, wet, or windy it might be!

Date:

Astronomy

Oct. 16, 2013 Rise Set
Actual Time 7:25 AM MDT 6:20 PM MDT
Civil Twilight 6:55 AM MDT 6:50 PM MDT
Nautical Twilight 6:21 AM MDT 7:24 PM MDT
Astronomical Twilight 5:47 AM MDT 7:58 PM MDT
Moon 5:06 PM MDT (10/16) 4:50 AM MDT (10/16)
Length of Visible Light 11h 55m
Length of Day
10h 55m
Waxing Gibbous, 94% of the Moon is Illuminated
Oct 16
Waxing Gibbous
Oct 18
Full
Oct 26
Last Quarter
Nov 3
New
Nov 9
First Quarter

Hourly Weather History & Observations

Time (MDT) Temp. Windchill Dew Point Humidity Pressure Visibility Wind Dir Wind Speed Gust Speed Precip Events Conditions
12:53 AM 24.1 °F 18.2 °F 19.9 °F 84% 30.19 in 10.0 mi SSW 4.6 mph - N/A   Clear
1:53 AM 21.9 °F - 18.0 °F 85% 30.19 in 10.0 mi Calm Calm - N/A   Clear
2:53 AM 19.9 °F - 16.0 °F 85% 30.19 in 10.0 mi Calm Calm - N/A   Clear
3:53 AM 23.0 °F - 17.1 °F 78% 30.16 in 10.0 mi Calm Calm - N/A   Clear
4:53 AM 21.0 °F - 15.1 °F 78% 30.14 in 10.0 mi Calm Calm - N/A   Clear
5:53 AM 23.0 °F - 16.0 °F 74% 30.13 in 10.0 mi Calm Calm - N/A   Clear
6:53 AM 24.1 °F - 16.0 °F 71% 30.14 in 10.0 mi Calm Calm - N/A   Clear
7:53 AM 21.9 °F - 16.0 °F 78% 30.15 in 10.0 mi Calm Calm - N/A   Clear
8:53 AM 33.1 °F - 24.1 °F 70% 30.14 in 10.0 mi Calm Calm - N/A   Clear
9:53 AM 42.1 °F - 28.0 °F 58% 30.12 in 10.0 mi Calm Calm - N/A   Clear
10:53 AM 48.9 °F - 24.1 °F 38% 30.09 in 10.0 mi Calm Calm - N/A   Clear
11:53 AM 54.0 °F - 18.0 °F 24% 30.08 in 10.0 mi NNE 3.5 mph - N/A   Clear
12:53 PM 54.0 °F - 21.9 °F 29% 30.06 in 10.0 mi NW 10.4 mph - N/A   Clear
1:53 PM 55.0 °F - 24.1 °F 30% 30.05 in 10.0 mi NW 12.7 mph - N/A   Clear
2:53 PM 54.0 °F - 23.0 °F 30% 30.05 in 10.0 mi NNW 13.8 mph - N/A   Clear
3:53 PM 51.1 °F - 24.1 °F 35% 30.06 in 10.0 mi NW 16.1 mph - N/A   Clear
4:53 PM 48.9 °F - 25.0 °F 39% 30.08 in 10.0 mi NNW 13.8 mph 23.0 mph N/A   Clear
5:53 PM 46.9 °F - 27.0 °F 46% 30.09 in 10.0 mi NNW 19.6 mph - N/A   Clear
6:53 PM 44.1 °F 35.2 °F 32.0 °F 63% 30.14 in 10.0 mi NW 23.0 mph 31.1 mph N/A   Clear
7:53 PM 42.1 °F 33.9 °F 34.0 °F 73% 30.18 in 10.0 mi NNW 17.3 mph 23.0 mph N/A   Overcast
8:53 PM 39.9 °F 32.1 °F 33.1 °F 77% 30.15 in 10.0 mi NW 13.8 mph - 0.00 in   Overcast
9:53 PM 39.0 °F 29.9 °F 34.0 °F 82% 30.15 in 10.0 mi NNW 17.3 mph - N/A   Overcast
10:53 PM 37.0 °F 27.0 °F 34.0 °F 89% 30.15 in 10.0 mi NW 18.4 mph - 0.00 in Rain Light Rain
11:40 PM 35.6 °F 25.9 °F 33.8 °F 93% 30.12 in 10.0 mi NW 16.1 mph - 0.00 in   Overcast
11:53 PM 36.0 °F 26.3 °F 33.1 °F 89% 30.14 in 10.0 mi WNW 16.1 mph - 0.00 in   Overcast